Погода в Верхней Видлице

Россия / Республика Карелия     61°11′24″N   32°28′23″E
темп.,
°C
ветер,
м/с
пор.,
м/с
влажн.,
%
обл.,
%
осадки,
мм/ч
давл.,
гПа
погр.,
м
17 сентября, пт
пт1700:00+3ссв22838 0.0 102344
03:00+4с1275100 0.0 102343
06:00+5с2682100 0.0 1023240
09:00+6ссв36684 0.0 1024369
12:00+10ссв356385 0.0 10241098
15:00+9ссв356698 0.0 10241213
18:00+9ссв2570100 0.1 1024274
21:00+7св2682100 0.1 1025185
18 сентября, сб
сб1800:00+7св2579100 0.0 1027134
03:00+6св2585100 0.0 1027176
06:00+6св3783100 0.0 1028276
09:00+6св387998 0.1 1029390
12:00+10в236150 0.1 10291121
15:00+9св3567100 0.1 1029602
18:00+8всв366699 0.0 1029716
21:00+3всв287921 0.0 1030216
19 сентября, вс
вс1900:00+5в266674 0.0 1030312
03:00+4в2570100 0.0 1030163
06:00+4всв2573100 0.0 1030166
09:00+6в2663100 0.0 1031610
12:00+8в465295 0.0 10311528
15:00+8всв465183 0.0 10301505
18:00+7всв48575 0.0 1030783
21:00+3св297910 0.0 1031183
20 сентября, пн
пн2000:00+5всв397382 0.0 1031545
03:00+4в397387 0.0 1032480
06:00+5всв496831 0.0 1032688
09:00+5в4962100 0.0 10321308
12:00+7в5955100 0.0 10321432
15:00+8всв585279 0.0 10311513
18:00+7всв5956100 0.0 10301437
21:00+6в496040 0.0 1030954
21 сентября, вт
вт2100:00+3всв287296 0.0 1030309
03:00+4всв38707 0.0 1029371
06:00+1всв311827 0.0 1028354
09:00+4всв410715 0.0 1027728
12:00+8всв46515 0.0 10251046
15:00+10всв464756 0.0 10241271
18:00+7св386131 0.0 1023479
21:00+3св278356 0.0 1023143